,,Stat6,,Stat2,,Stat8,,Stat9,,Stat10,,Wind1,,Wind1,
time,status,PA1M_AVG,status,PR1M_SUM,status,RH1M_AVG,status,SR1M_AVG,status,TA1M_AVG,status,W1dAve1m,status,W1sAve1m,
2007-03-15, 00:00:00,VALID,916.617,VALID,0,VALID,100,VALID,12.8375,VALID,19.9087,VALID,187,VALID,0.925781,
2007-03-15, 00:01:00,VALID,916.602,VALID,0,VALID,100,VALID,13.313,VALID,19.9027,VALID,182,VALID,0.986719,
2007-03-15, 00:02:00,VALID,916.608,VALID,0,VALID,100,VALID,13.8394,VALID,19.8995,VALID,172,VALID,0.542773,
2007-03-15, 00:03:00,VALID,916.616,VALID,0,VALID,100,VALID,14.3997,VALID,19.9189,VALID,170,VALID,0.68457,
2007-03-15, 00:04:00,VALID,916.625,VALID,0,VALID,100,VALID,14.6714,VALID,19.8955,VALID,188,VALID,0.802641,
2007-03-15, 00:05:00,VALID,916.64,VALID,0,VALID,100,VALID,14.7394,VALID,19.899,VALID,171,VALID,0.822266,
2007-03-15, 00:06:00,VALID,916.656,VALID,0,VALID,100,VALID,14.9601,VALID,19.9089,VALID,158,VALID,0.647727,
2007-03-15, 00:07:00,VALID,916.664,VALID,0,VALID,100,VALID,15.1469,VALID,19.9152,VALID,173,VALID,0.731179,
2007-03-15, 00:08:00,VALID,916.679,VALID,0,VALID,100,VALID,15.4016,VALID,19.9217,VALID,175,VALID,0.459847,
2007-03-15, 00:09:00,VALID,916.682,VALID,0,VALID,100,VALID,16.0978,VALID,19.9312,VALID,175,VALID,0.511719,
2007-03-15, 00:10:00,VALID,916.69,VALID,0,VALID,100,VALID,17.0318,VALID,19.9379,VALID,186,VALID,0.95367,
2007-03-15, 00:11:00,VALID,916.697,VALID,0,VALID,100,VALID,18.0676,VALID,19.9249,VALID,189,VALID,1.01042,
2007-03-15, 00:12:00,VALID,916.715,VALID,0,VALID,100,VALID,19.0185,VALID,19.9217,VALID,192,VALID,0.944196,
2007-03-15, 00:13:00,VALID,916.717,VALID,0,VALID,100,VALID,19.8676,VALID,19.9217,VALID,191,VALID,1.12021,
2007-03-15, 00:14:00,VALID,916.745,VALID,0,VALID,100,VALID,20.6827,VALID,19.9282,VALID,180,VALID,0.876758,
2007-03-15, 00:15:00,VALID,916.743,VALID,0,VALID,100,VALID,21.9392,VALID,19.9387,VALID,175,VALID,0.527951,
2007-03-15, 00:16:00,VALID,916.76,VALID,0,VALID,100,VALID,24.0109,VALID,19.9454,VALID,176,VALID,0.511018,
2007-03-15, 00:17:00,VALID,916.75,VALID,0,VALID,100,VALID,26.1505,VALID,19.9491,VALID,175,VALID,0.461483,
2007-03-15, 00:18:00,VALID,916.751,VALID,0,VALID,100,VALID,28.358,VALID,19.9649,VALID,179,VALID,0.62391,
2007-03-15, 00:19:00,VALID,916.756,VALID,0,VALID,100,VALID,30.2598,VALID,19.9654,VALID,187,VALID,0.78995,
2007-03-15, 00:20:00,VALID,916.76,VALID,0,VALID,100,VALID,31.7372,VALID,19.9684,VALID,188,VALID,0.625744,
2007-03-15, 00:21:00,VALID,916.768,VALID,0,VALID,100,VALID,33.69,VALID,19.9751,VALID,181,VALID,0.367914,
2007-03-15, 00:22:00,VALID,916.778,VALID,0,VALID,100,VALID,35.7446,VALID,19.9811,VALID,182,VALID,0.279916,
2007-03-15, 00:23:00,VALID,916.793,VALID,0,VALID,100,VALID,37.1031,VALID,19.9876,VALID,173,VALID,0.234738,
2007-03-15, 00:24:00,VALID,916.809,VALID,0,VALID,100,VALID,38.2239,VALID,20.014,VALID,165,VALID,0.514353,
2007-03-15, 00:25:00,VALID,916.817,VALID,0,VALID,100,VALID,39.0559,VALID,20.0006,VALID,144,VALID,0.771621,
2007-03-15, 00:26:00,VALID,916.823,VALID,0,VALID,100,VALID,40.2446,VALID,20.0076,VALID,122,VALID,0.767624,
2007-03-15, 00:27:00,VALID,916.85,VALID,0,VALID,100,VALID,40.8898,VALID,19.9978,VALID,138,VALID,0.991044,
2007-03-15, 00:28:00,VALID,916.859,VALID,0,VALID,100,VALID,41.4332,VALID,20.0043,VALID,145,VALID,0.576126,
2007-03-15, 00:29:00,VALID,916.869,VALID,0,VALID,100,VALID,41.9596,VALID,20.0108,VALID,157,VALID,0.993096,
2007-03-15, 00:30:00,VALID,916.9,VALID,0,VALID,100,VALID,42.5879,VALID,20.01,VALID,144,VALID,1.10566,
2007-03-15, 00:31:00,VALID,916.906,VALID,0,VALID,100,VALID,43.0804,VALID,19.9993,VALID,154,VALID,0.8748,
2007-03-15, 00:32:00,VALID,916.921,VALID,0,VALID,100,VALID,43.42,VALID,20.0125,VALID,139,VALID,0.603795,
2007-03-15, 00:33:00,VALID,916.93,VALID,0,VALID,100,VALID,43.8105,VALID,20.0188,VALID,115,VALID,0.911014,
2007-03-15, 00:34:00,VALID,916.949,VALID,0,VALID,100,VALID,44.0143,VALID,20.0387,VALID,126,VALID,0.631324,
2007-03-15, 00:35:00,VALID,916.966,VALID,0,VALID,100,VALID,44.0653,VALID,20.0582,VALID,122,VALID,0.107515,
2007-03-15, 00:36:00,VALID,916.982,VALID,0,VALID,100,VALID,44.1332,VALID,20.0742,VALID,122,VALID,0.0585029,
2007-03-15, 00:37:00,VALID,916.987,VALID,0,VALID,100,VALID,44.2181,VALID,20.0839,VALID,107,VALID,0.171317,
2007-03-15, 00:38:00,VALID,917.002,VALID,0,VALID,100,VALID,44.286,VALID,20.1066,VALID,72,VALID,0.518229,
2007-03-15, 00:39:00,VALID,917.025,VALID,0,VALID,100,VALID,44.4898,VALID,20.1331,VALID,68,VALID,0.234375,
2007-03-15, 00:40:00,VALID,917.029,VALID,0,VALID,100,VALID,44.9652,VALID,20.1326,VALID,68,VALID,0.115282,
2007-03-15, 00:41:00,VALID,917.051,VALID,0,VALID,100,VALID,45.4067,VALID,20.1358,VALID,75,VALID,0.490091,
2007-03-15, 00:42:00,VALID,917.068,VALID,0,VALID,100,VALID,45.8313,VALID,20.1228,VALID,81,VALID,0.33941,
2007-03-15, 00:43:00,VALID,917.091,VALID,0,VALID,100,VALID,46.4086,VALID,20.1196,VALID,81,VALID,0.104167,
2007-03-15, 00:44:00,VALID,917.106,VALID,0,VALID,100,VALID,47.0029,VALID,20.1323,VALID,81,VALID,0.0174419,
2007-03-15, 00:45:00,VALID,917.115,VALID,0,VALID,100,VALID,47.7331,VALID,20.152,VALID,81,VALID,0.0738467,
2007-03-15, 00:46:00,VALID,917.117,VALID,0,VALID,100,VALID,48.6161,VALID,20.1456,VALID,81,VALID,0.0853924,
2007-03-15, 00:47:00,VALID,917.139,VALID,0,VALID,100,VALID,49.5501,VALID,20.1491,VALID,91,VALID,0.289063,
2007-03-15, 00:48:00,VALID,917.144,VALID,0,VALID,100,VALID,50.4331,VALID,20.1491,VALID,98,VALID,0.348837,
2007-03-15, 00:49:00,VALID,917.143,VALID,0,VALID,100,VALID,51.0953,VALID,20.162,VALID,98,VALID,0.187847,
2007-03-15, 00:50:00,VALID,917.148,VALID,0,VALID,100,VALID,51.5029,VALID,20.1748,VALID,165,VALID,0.52504,
2007-03-15, 00:51:00,VALID,917.146,VALID,0,VALID,100,VALID,52.3179,VALID,20.1588,VALID,152,VALID,0.811592,
2007-03-15, 00:52:00,VALID,917.152,VALID,0,VALID,100,VALID,53.7783,VALID,20.1423,VALID,169,VALID,0.77753,
2007-03-15, 00:53:00,VALID,917.152,VALID,0,VALID,100,VALID,55.9009,VALID,20.1526,VALID,159,VALID,0.607195,
2007-03-15, 00:54:00,VALID,917.145,VALID,0,VALID,100,VALID,58.5669,VALID,20.1618,VALID,160,VALID,0.310069,
2007-03-15, 00:55:00,VALID,917.154,VALID,0,VALID,100,VALID,61.148,VALID,20.1555,VALID,201,VALID,0.565163,
2007-03-15, 00:56:00,VALID,917.168,VALID,0,VALID,100,VALID,64.0007,VALID,20.175,VALID,199,VALID,0.516406,
2007-03-15, 00:57:00,VALID,917.177,VALID,0,VALID,100,VALID,66.7856,VALID,20.185,VALID,199,VALID,0.316797,
2007-03-15, 00:58:00,VALID,917.194,VALID,0,VALID,100,VALID,69.4346,VALID,20.1847,VALID,199,VALID,0.0973704,
2007-03-15, 00:59:00,VALID,917.199,VALID,0,VALID,100,VALID,72.0666,VALID,20.2075,VALID,247,VALID,0.409598,
2007-03-15, 01:00:00,VALID,917.223,VALID,0,VALID,100,VALID,74.427,VALID,20.2169,VALID,249,VALID,0.432413,
2007-03-15, 01:01:00,VALID,917.245,VALID,0,VALID,100,VALID,76.227,VALID,20.2304,VALID,239,VALID,0.110973,
2007-03-15, 01:02:00,VALID,917.268,VALID,0,VALID,100,VALID,78.1458,VALID,20.2661,VALID,239,VALID,0.00457317,
2007-03-15, 01:03:00,VALID,917.287,VALID,0,VALID,100,VALID,80.5061,VALID,20.2951,VALID,239,VALID,0,
2007-03-15, 01:04:00,VALID,917.306,VALID,0,VALID,100,VALID,83.9023,VALID,20.3175,VALID,239,VALID,0,
2007-03-15, 01:05:00,VALID,917.316,VALID,0.2,VALID,100,VALID,87.0947,VALID,20.3537,VALID,239,VALID,0,
2007-03-15, 01:06:00,VALID,917.333,VALID,0,VALID,100,VALID,89.7946,VALID,20.3405,VALID,239,VALID,0,
2007-03-15, 01:07:00,VALID,917.35,VALID,0,VALID,100,VALID,92.121,VALID,20.3145,VALID,238,VALID,0.206081,
2007-03-15, 01:08:00,VALID,917.374,VALID,0,VALID,100,VALID,93.8191,VALID,20.3413,VALID,238,VALID,0.206745,
2007-03-15, 01:09:00,VALID,917.389,VALID,0,VALID,100,VALID,94.9568,VALID,20.3505,VALID,238,VALID,0.284157,
2007-03-15, 01:10:00,VALID,917.411,VALID,0,VALID,100,VALID,96.7907,VALID,20.3473,VALID,238,VALID,0.403525,
2007-03-15, 01:11:00,VALID,917.438,VALID,0,VALID,100,VALID,99.5077,VALID,20.341,VALID,238,VALID,0.23266,
2007-03-15, 01:12:00,VALID,917.459,VALID,0,VALID,100,VALID,101.664,VALID,20.4087,VALID,238,VALID,0,
2007-03-15, 01:13:00,VALID,917.478,VALID,0,VALID,100,VALID,103.481,VALID,20.4703,VALID,216,VALID,0.462798,
2007-03-15, 01:14:00,VALID,917.492,VALID,0,VALID,100,VALID,106.028,VALID,20.4738,VALID,189,VALID,0.539063,
2007-03-15, 01:15:00,VALID,917.516,VALID,0,VALID,100,VALID,109.391,VALID,20.4933,VALID,189,VALID,0.126139,
2007-03-15, 01:16:00,VALID,917.531,VALID,0,VALID,100,VALID,113.381,VALID,20.5292,VALID,178,VALID,0.167773,
2007-03-15, 01:17:00,VALID,917.547,VALID,0,VALID,100,VALID,117.643,VALID,20.552,VALID,165,VALID,0.571403,
2007-03-15, 01:18:00,VALID,917.574,VALID,0,VALID,100,VALID,121.77,VALID,20.513,VALID,173,VALID,0.504179,
2007-03-15, 01:19:00,VALID,917.604,VALID,0,VALID,100,VALID,125.981,VALID,20.5003,VALID,155,VALID,0.526344,
2007-03-15, 01:20:00,VALID,917.623,VALID,0,VALID,100,VALID,129.292,VALID,20.4906,VALID,157,VALID,0.853087,
2007-03-15, 01:21:00,VALID,917.65,VALID,0,VALID,100,VALID,132.417,VALID,20.4608,VALID,154,VALID,1.03267,
2007-03-15, 01:22:00,VALID,917.689,VALID,0,VALID,100,VALID,135.864,VALID,20.4411,VALID,157,VALID,1.15174,
2007-03-15, 01:23:00,VALID,917.702,VALID,0,VALID,100,VALID,139.769,VALID,20.4976,VALID,149,VALID,0.714177,
2007-03-15, 01:24:00,VALID,917.734,VALID,0,VALID,100,VALID,144.201,VALID,20.5549,VALID,168,VALID,0.492001,
2007-03-15, 01:25:00,VALID,917.744,VALID,0,VALID,100,VALID,148.395,VALID,20.562,VALID,155,VALID,0.91495,
2007-03-15, 01:26:00,VALID,917.771,VALID,0,VALID,100,VALID,151.044,VALID,20.5582,VALID,150,VALID,0.639898,
2007-03-15, 01:27:00,VALID,917.775,VALID,0,VALID,100,VALID,151.724,VALID,20.6036,VALID,173,VALID,0.609184,
2007-03-15, 01:28:00,VALID,917.794,VALID,0,VALID,100,VALID,152.233,VALID,20.6236,VALID,144,VALID,0.824826,
2007-03-15, 01:29:00,VALID,917.817,VALID,0,VALID,100,VALID,152.641,VALID,20.5749,VALID,159,VALID,1.08866,
2007-03-15, 01:30:00,VALID,917.83,VALID,0,VALID,100,VALID,154.543,VALID,20.5747,VALID,150,VALID,0.930876,
2007-03-15, 01:31:00,VALID,917.835,VALID,0,VALID,100,VALID,157.939,VALID,20.5584,VALID,146,VALID,1.16635,
2007-03-15, 01:32:00,VALID,917.841,VALID,0,VALID,100,VALID,162.659,VALID,20.5517,VALID,139,VALID,0.605945,
2007-03-15, 01:33:00,VALID,917.84,VALID,0,VALID,100,VALID,168.093,VALID,20.5936,VALID,165,VALID,0.616425,
2007-03-15, 01:34:00,VALID,917.833,VALID,0,VALID,100,VALID,173.493,VALID,20.6428,VALID,173,VALID,0.33346,
2007-03-15, 01:35:00,VALID,917.843,VALID,0,VALID,100,VALID,179.47,VALID,20.6855,VALID,164,VALID,0.3125,
2007-03-15, 01:36:00,VALID,917.844,VALID,0,VALID,100,VALID,185.346,VALID,20.7048,VALID,161,VALID,0.348011,
2007-03-15, 01:37:00,VALID,917.868,VALID,0,VALID,100,VALID,190.661,VALID,20.7762,VALID,162,VALID,0.137957,
2007-03-15, 01:38:00,VALID,917.872,VALID,0,VALID,100,VALID,195.568,VALID,20.8383,VALID,175,VALID,0.470274,
2007-03-15, 01:39:00,VALID,917.878,VALID,0,VALID,100,VALID,201.07,VALID,20.8576,VALID,152,VALID,0.481585,
2007-03-15, 01:40:00,VALID,917.909,VALID,0,VALID,100,VALID,205.111,VALID,20.8213,VALID,183,VALID,0.89826,
2007-03-15, 01:41:00,VALID,917.919,VALID,0,VALID,100,VALID,207.251,VALID,20.8148,VALID,157,VALID,0.808984,
2007-03-15, 01:42:00,VALID,917.918,VALID,0,VALID,100,VALID,208.779,VALID,20.8246,VALID,164,VALID,0.507813,
2007-03-15, 01:43:00,VALID,917.93,VALID,0,VALID,100,VALID,211.717,VALID,20.89,VALID,152,VALID,0.28782,
2007-03-15, 01:44:00,VALID,917.941,VALID,0,VALID,100,VALID,216.879,VALID,20.9284,VALID,46,VALID,0.195313,
2007-03-15, 01:45:00,VALID,917.961,VALID,0,VALID,100,VALID,219.121,VALID,20.9898,VALID,123,VALID,0.210007,
2007-03-15, 01:46:00,VALID,917.994,VALID,0,VALID,100,VALID,218.475,VALID,21.071,VALID,133,VALID,0.309152,
2007-03-15, 01:47:00,VALID,918.013,VALID,0,VALID,100,VALID,217.592,VALID,21.1591,VALID,148,VALID,0.344238,
2007-03-15, 01:48:00,VALID,918.035,VALID,0,VALID,100,VALID,218.509,VALID,21.2108,VALID,151,VALID,0.399926,
2007-03-15, 01:49:00,VALID,918.043,VALID,0,VALID,100,VALID,221.311,VALID,21.1911,VALID,126,VALID,0.809896,
2007-03-15, 01:50:00,VALID,918.045,VALID,0,VALID,100,VALID,108.134,VALID,21.1786,VALID,135,VALID,0.885417,
2007-03-15, 01:51:00,VALID,918.065,VALID,0,VALID,100,VALID,228.919,VALID,21.1489,VALID,157,VALID,1.21788,
2007-03-15, 01:52:00,VALID,918.07,VALID,0,VALID,100,VALID,232.773,VALID,21.0845,VALID,140,VALID,0.728299,
2007-03-15, 01:53:00,VALID,918.074,VALID,0,VALID,99.9967,VALID,235.745,VALID,21.0715,VALID,151,VALID,0.86849,
2007-03-15, 01:54:00,VALID,918.082,VALID,0,VALID,99.6862,VALID,237.63,VALID,21.0488,VALID,144,VALID,1.07507,
2007-03-15, 01:55:00,VALID,918.097,VALID,0,VALID,99.8006,VALID,237.8,VALID,21.055,VALID,115,VALID,0.606836,
2007-03-15, 01:56:00,VALID,918.119,VALID,0,VALID,100,VALID,151.554,VALID,21.1132,VALID,114,VALID,0.250545,
2007-03-15, 01:57:00,VALID,918.13,VALID,0,VALID,99.8449,VALID,86.772,VALID,21.1491,VALID,136,VALID,0.401677,
2007-03-15, 01:58:00,VALID,918.132,VALID,0,VALID,99.8957,VALID,93.0719,VALID,21.1889,VALID,147,VALID,0.248326,
2007-03-15, 01:59:00,VALID,918.134,VALID,0,VALID,99.7414,VALID,112.447,VALID,21.2408,VALID,146,VALID,0.65024,
2007-03-15, 02:00:00,VALID,918.138,VALID,0,VALID,99.1534,VALID,179.895,VALID,21.2181,VALID,138,VALID,0.75093,
2007-03-15, 02:01:00,VALID,918.141,VALID,0,VALID,99.1826,VALID,214.875,VALID,21.2241,VALID,138,VALID,0.692454,
2007-03-15, 02:02:00,VALID,918.142,VALID,0,VALID,99.2246,VALID,210.681,VALID,21.26,VALID,133,VALID,0.456745,
2007-03-15, 02:03:00,VALID,918.153,VALID,0,VALID,99.2907,VALID,204.653,VALID,21.322,VALID,132,VALID,0.327172,
2007-03-15, 02:04:00,VALID,918.154,VALID,0,VALID,99.414,VALID,194.498,VALID,21.3577,VALID,114,VALID,0.362165,
2007-03-15, 02:05:00,VALID,918.169,VALID,0,VALID,99.9105,VALID,175.718,VALID,21.4583,VALID,36,VALID,1.10342,
2007-03-15, 02:06:00,VALID,918.187,VALID,0,VALID,99.9585,VALID,154.729,VALID,21.5687,VALID,1,VALID,0.856707,
2007-03-15, 02:07:00,VALID,918.203,VALID,0,VALID,99.4115,VALID,146.935,VALID,21.497,VALID,23,VALID,1.52176,
2007-03-15, 02:08:00,VALID,918.226,VALID,0,VALID,99.5234,VALID,145.084,VALID,21.4383,VALID,22,VALID,1.43992,
2007-03-15, 02:09:00,VALID,918.25,VALID,0,VALID,99.8324,VALID,133.656,VALID,21.4388,VALID,38,VALID,1.54371,
2007-03-15, 02:10:00,VALID,918.27,VALID,0,VALID,99.3708,VALID,147.02,VALID,21.3772,VALID,15,VALID,1.14169,
2007-03-15, 02:11:00,VALID,918.291,VALID,0,VALID,99.0923,VALID,147.971,VALID,21.2765,VALID,1,VALID,0.787348,
2007-03-15, 02:12:00,VALID,918.308,VALID,0,VALID,99.3212,VALID,148.446,VALID,21.2603,VALID,5,VALID,1.14343,
2007-03-15, 02:13:00,VALID,918.342,VALID,0,VALID,99.648,VALID,149.771,VALID,21.2733,VALID,33,VALID,1.23874,
2007-03-15, 02:14:00,VALID,918.369,VALID,0,VALID,99.311,VALID,149.652,VALID,21.26,VALID,23,VALID,1.46384,
2007-03-15, 02:15:00,VALID,918.393,VALID,0,VALID,99.0656,VALID,147.75,VALID,21.2149,VALID,29,VALID,1.6423,
2007-03-15, 02:16:00,VALID,918.429,VALID,0,VALID,99.2551,VALID,144.745,VALID,21.2146,VALID,31,VALID,1.48828,
2007-03-15, 02:17:00,VALID,918.462,VALID,0,VALID,99.147,VALID,137.698,VALID,21.1986,VALID,28,VALID,1.53036,
2007-03-15, 02:18:00,VALID,918.496,VALID,0,VALID,99.3543,VALID,135.524,VALID,21.1824,VALID,36,VALID,1.19567,
2007-03-15, 02:19:00,VALID,918.508,VALID,0,VALID,99.4064,VALID,140.669,VALID,21.1986,VALID,40,VALID,1.27277,
2007-03-15, 02:20:00,VALID,918.52,VALID,0,VALID,99.5895,VALID,147.597,VALID,21.2149,VALID,50,VALID,1.06938,
2007-03-15, 02:21:00,VALID,918.534,VALID,0,VALID,99.9372,VALID,150.195,VALID,21.2571,VALID,42,VALID,1.24813,
2007-03-15, 02:22:00,VALID,918.556,VALID,0,VALID,99.912,VALID,150.518,VALID,21.296,VALID,31,VALID,1.12367,
2007-03-15, 02:23:00,VALID,918.565,VALID,0,VALID,99.7383,VALID,147.92,VALID,21.2801,VALID,25,VALID,0.928089,
2007-03-15, 02:24:00,VALID,918.56,VALID,0,VALID,99.6951,VALID,143.488,VALID,21.2798,VALID,34,VALID,1.23326,
2007-03-15, 02:25:00,VALID,918.566,VALID,0,VALID,99.8731,VALID,143.182,VALID,21.293,VALID,35,VALID,1.02825,
2007-03-15, 02:26:01,VALID,918.563,VALID,0,VALID,99.9926,VALID,142.435,VALID,21.3385,VALID,39,VALID,1.03982,
2007-03-15, 02:27:01,VALID,918.569,VALID,0,VALID,99.9685,VALID,140.873,VALID,21.3772,VALID,20,VALID,0.974702,
2007-03-15, 02:28:00,VALID,918.579,VALID,0,VALID,99.2576,VALID,140.431,VALID,21.3417,VALID,33,VALID,1.11062,
2007-03-15, 02:29:00,VALID,918.591,VALID,0,VALID,98.7871,VALID,140.194,VALID,21.27,VALID,46,VALID,1.12773,
2007-03-15, 02:30:00,VALID,918.589,VALID,0,VALID,99.1076,VALID,140.194,VALID,21.2868,VALID,35,VALID,0.59096,
2007-03-15, 02:31:00,VALID,918.605,VALID,0,VALID,99.676,VALID,139.82,VALID,21.342,VALID,26,VALID,0.28487,
2007-03-15, 02:32:00,VALID,918.609,VALID,0,VALID,99.9278,VALID,82.6457,VALID,21.4067,VALID,354,VALID,0.289426,
2007-03-15, 02:33:01,VALID,918.62,VALID,0,VALID,99.6798,VALID,141.858,VALID,21.3839,VALID,270,VALID,0.339935,
2007-03-15, 02:34:01,VALID,918.619,VALID,0,VALID,99.723,VALID,143.556,VALID,21.3904,VALID,272,VALID,0.175249,
2007-03-15, 02:35:00,VALID,918.627,VALID,0,VALID,99.944,VALID,143.216,VALID,21.3939,VALID,273,VALID,0.0484375,
2007-03-15, 02:36:00,VALID,918.625,VALID,0,VALID,100,VALID,142.775,VALID,21.4367,VALID,51,VALID,0.350543,
2007-03-15, 02:37:01,VALID,918.613,VALID,0,VALID,100,VALID,144.626,VALID,21.4976,VALID,27,VALID,0.415365,
2007-03-15, 02:38:00,VALID,918.618,VALID,0,VALID,100,VALID,147.546,VALID,21.5527,VALID,26,VALID,0.0970703,
2007-03-15, 02:39:00,VALID,918.614,VALID,0,VALID,99.9674,VALID,146.477,VALID,21.5563,VALID,309,VALID,0.19029,
2007-03-15, 02:40:00,VALID,918.613,VALID,0,VALID,99.5692,VALID,147.428,VALID,21.4911,VALID,235,VALID,0.389535,
2007-03-15, 02:41:00,VALID,918.613,VALID,0,VALID,99.6722,VALID,149.856,VALID,21.4748,VALID,237,VALID,0.274182,
2007-03-15, 02:42:01,VALID,918.603,VALID,0,VALID,99.793,VALID,148.701,VALID,21.4978,VALID,341,VALID,0.460938,
2007-03-15, 02:43:00,VALID,918.595,VALID,0,VALID,99.4573,VALID,148.667,VALID,21.4819,VALID,3,VALID,0.443638,
2007-03-15, 02:44:00,VALID,918.582,VALID,0,VALID,99.865,VALID,149.499,VALID,21.5184,VALID,28,VALID,0.594308,
2007-03-15, 02:45:00,VALID,918.571,VALID,0,VALID,100,VALID,149.262,VALID,21.5822,VALID,29,VALID,0.401758,
2007-03-15, 02:46:00,VALID,918.577,VALID,0,VALID,99.8535,VALID,150.552,VALID,21.6009,VALID,28,VALID,0.134084,
2007-03-15, 02:47:01,VALID,918.567,VALID,0,VALID,99.6773,VALID,155.731,VALID,21.5814,VALID,28,VALID,0,
2007-03-15, 02:48:01,VALID,918.564,VALID,0,VALID,99.6289,VALID,159.518,VALID,21.5979,VALID,328,VALID,0.228795,
2007-03-15, 02:49:00,VALID,918.574,VALID,0,VALID,99.072,VALID,160.044,VALID,21.536,VALID,273,VALID,0.128125,
2007-03-15, 02:50:00,VALID,918.585,VALID,0,VALID,99.4954,VALID,77.976,VALID,21.5879,VALID,300,VALID,0.178234,
2007-03-15, 02:51:00,VALID,918.6,VALID,0,VALID,99.6175,VALID,73.2553,VALID,21.6531,VALID,346,VALID,0.360352,
2007-03-15, 02:52:01,VALID,918.627,VALID,0,VALID,99.7854,VALID,63.5423,VALID,21.7275,VALID,349,VALID,0.26508,
2007-03-15, 02:53:00,VALID,918.637,VALID,0,VALID,99.7866,VALID,155.256,VALID,21.7859,VALID,23,VALID,0.37779,
2007-03-15, 02:54:00,VALID,918.643,VALID,0,VALID,99.2271,VALID,153.88,VALID,21.7591,VALID,33,VALID,0.565696,
2007-03-15, 02:55:01,VALID,918.641,VALID,0,VALID,99.1852,VALID,153.863,VALID,21.7721,VALID,29,VALID,0.262695,
2007-03-15, 02:56:00,VALID,918.646,VALID,0,VALID,98.9855,VALID,156.835,VALID,21.7751,VALID,15,VALID,0.641602,
2007-03-15, 02:57:01,VALID,918.635,VALID,0,VALID,98.4998,VALID,161.267,VALID,21.7169,VALID,336,VALID,0.593378,
2007-03-15, 02:58:00,VALID,918.63,VALID,0,VALID,98.824,VALID,166.293,VALID,21.7305,VALID,22,VALID,0.415128,
2007-03-15, 02:59:00,VALID,918.611,VALID,0,VALID,98.9232,VALID,171.608,VALID,21.7824,VALID,25,VALID,0.327195,
2007-03-15, 03:00:00,VALID,918.626,VALID,0,VALID,98.2404,VALID,175.786,VALID,21.714,VALID,333,VALID,0.415206,
2007-03-15, 03:01:00,VALID,918.602,VALID,0,VALID,98.1196,VALID,177.976,VALID,21.6704,VALID,329,VALID,0.127663,
2007-03-15, 03:02:00,VALID,918.609,VALID,0,VALID,98.3014,VALID,178.01,VALID,21.6834,VALID,315,VALID,0.277344,
2007-03-15, 03:03:00,VALID,918.602,VALID,0,VALID,98.1882,VALID,177.178,VALID,21.6637,VALID,255,VALID,0.240589,
2007-03-15, 03:04:00,VALID,918.616,VALID,0,VALID,98.3917,VALID,179.335,VALID,21.6767,VALID,253,VALID,0.122904,
2007-03-15, 03:05:01,VALID,918.606,VALID,0,VALID,98.8749,VALID,182.323,VALID,21.7519,VALID,285,VALID,0.134028,
2007-03-15, 03:06:00,VALID,918.606,VALID,0,VALID,99.4547,VALID,187.18,VALID,21.8625,VALID,344,VALID,0.294513,
2007-03-15, 03:07:01,VALID,918.595,VALID,0,VALID,99.4357,VALID,192.461,VALID,21.921,VALID,17,VALID,0.372283,
2007-03-15, 03:08:01,VALID,918.596,VALID,0,VALID,99.2297,VALID,195.823,VALID,21.9437,VALID,23,VALID,0.100543,
2007-03-15, 03:09:01,VALID,918.591,VALID,0,VALID,99.1928,VALID,197.147,VALID,21.9437,VALID,23,VALID,0.18657,
2007-03-15, 03:10:01,VALID,918.578,VALID,0,VALID,99.5565,VALID,194.363,VALID,22.0211,VALID,23,VALID,0,
2007-03-15, 03:11:01,VALID,918.571,VALID,0,VALID,99.5514,VALID,195.653,VALID,22.0928,VALID,23,VALID,0.0730378,
2007-03-15, 03:12:01,VALID,918.574,VALID,0,VALID,99.058,VALID,196.264,VALID,22.0896,VALID,23,VALID,0.0223214,
2007-03-15, 03:13:01,VALID,918.58,VALID,0,VALID,98.0165,VALID,195.925,VALID,21.9756,VALID,287,VALID,0.540968,
2007-03-15, 03:14:01,VALID,918.565,VALID,0,VALID,97.4888,VALID,198.557,VALID,21.8165,VALID,273,VALID,0.390625,
2007-03-15, 03:15:01,VALID,918.551,VALID,0,VALID,97.7966,VALID,200.272,VALID,21.7578,VALID,251,VALID,0.241824,
2007-03-15, 03:16:01,VALID,918.526,VALID,0,VALID,98.0878,VALID,206.521,VALID,21.7632,VALID,246,VALID,0.657315,
2007-03-15, 03:17:01,VALID,918.491,VALID,0,VALID,97.7686,VALID,212.481,VALID,21.6715,VALID,264,VALID,0.469815,
2007-03-15, 03:18:01,VALID,918.475,VALID,0,VALID,97.9415,VALID,214.468,VALID,21.6269,VALID,270,VALID,0.265434,
2007-03-15, 03:19:01,VALID,918.462,VALID,0,VALID,98.0572,VALID,215.724,VALID,21.5841,VALID,268,VALID,0.329649,
2007-03-15, 03:20:00,VALID,918.453,VALID,0,VALID,98.5405,VALID,214.977,VALID,21.6104,VALID,264,VALID,0.121366,
2007-03-15, 03:21:00,VALID,918.44,VALID,0,VALID,98.9601,VALID,211.564,VALID,21.6918,VALID,256,VALID,0.0957961,
2007-03-15, 03:22:00,VALID,918.443,VALID,0,VALID,99.1,VALID,203.617,VALID,21.7589,VALID,256,VALID,0.270833,
2007-03-15, 03:23:00,VALID,918.449,VALID,0,VALID,98.8011,VALID,196.146,VALID,21.7494,VALID,264,VALID,0.192587,
2007-03-15, 03:24:00,VALID,918.452,VALID,0,VALID,99.1521,VALID,185.312,VALID,21.8146,VALID,320,VALID,0.314977,
2007-03-15, 03:25:00,VALID,918.438,VALID,0,VALID,98.7846,VALID,173.069,VALID,21.8311,VALID,328,VALID,0.261719,
2007-03-15, 03:26:00,VALID,918.433,VALID,0,VALID,98.5659,VALID,161.946,VALID,21.8411,VALID,26,VALID,0.25343,
2007-03-15, 03:27:00,VALID,918.423,VALID,0,VALID,98.6015,VALID,153.116,VALID,21.8406,VALID,29,VALID,0.11059,
2007-03-15, 03:28:00,VALID,918.412,VALID,0,VALID,98.501,VALID,148.243,VALID,21.8476,VALID,63,VALID,0.294922,
2007-03-15, 03:29:00,VALID,918.392,VALID,0,VALID,98.234,VALID,146.018,VALID,21.7957,VALID,52,VALID,0.0575945,
2007-03-15, 03:30:00,VALID,918.385,VALID,0,VALID,98.838,VALID,143.556,VALID,21.8441,VALID,39,VALID,0.197443,
2007-03-15, 03:31:00,VALID,918.381,VALID,0,VALID,99.0783,VALID,142.707,VALID,21.9388,VALID,40,VALID,0.447409,
2007-03-15, 03:32:00,VALID,918.376,VALID,0,VALID,99.0402,VALID,144.32,VALID,21.971,VALID,41,VALID,0.0256696,
2007-03-15, 03:33:00,VALID,918.358,VALID,0,VALID,98.7388,VALID,146.748,VALID,21.971,VALID,337,VALID,0.157895,
2007-03-15, 03:34:00,VALID,918.35,VALID,0,VALID,97.7851,VALID,150.145,VALID,21.8801,VALID,265,VALID,0.410065,
2007-03-15, 03:35:00,VALID,918.332,VALID,0,VALID,97.4774,VALID,156.241,VALID,21.7662,VALID,256,VALID,0.422805,
2007-03-15, 03:36:00,VALID,918.321,VALID,0,VALID,97.9492,VALID,162.693,VALID,21.737,VALID,256,VALID,0.220203,
2007-03-15, 03:37:00,VALID,918.301,VALID,0,VALID,98.2899,VALID,170.284,VALID,21.7665,VALID,256,VALID,0.0463034,
2007-03-15, 03:38:00,VALID,918.28,VALID,0,VALID,98.1691,VALID,174.987,VALID,21.7629,VALID,256,VALID,0.175495,
2007-03-15, 03:39:00,VALID,918.258,VALID,0,VALID,97.9784,VALID,181.576,VALID,21.7045,VALID,256,VALID,0.166667,
2007-03-15, 03:40:00,VALID,918.239,VALID,0,VALID,98.4425,VALID,191.815,VALID,21.7635,VALID,256,VALID,0.113636,